Wind_Speed
11 11 10 9 9 7 7 6 5 5 4 4 3 3 2 1 1 1 0 0 1 2 2 2 3 3 3 3 3 3 4 4 4 5 5 6 6 7 7 7 8 8 9
13 12 11 11 10 9 8 7 6 6 5 4 4 4 3 2 2 2 1 2 2 2 2 3 3 4 4 4 4 4 4 4 5 5 6 7 7 8 8 8 9 9 9
14 13 12 12 11 10 9 9 8 7 6 5 5 5 4 4 4 3 3 3 3 4 4 4 4 4 4 5 5 5 5 5 6 7 7 8 8 9 9 9 10 10 10
15 15 14 13 13 12 11 10 9 8 7 7 6 6 5 5 5 5 5 5 5 5 5 5 5 5 5 6 6 6 6 7 7 8 8 9 9 10 10 10 11 11 11
17 17 16 15 14 14 13 11 10 9 9 8 7 7 7 7 6 6 6 7 7 7 6 6 6 6 6 7 7 7 8 8 9 9 10 10 10 10 11 11 11 12 12
19 18 18 17 16 15 14 13 12 11 10 10 9 9 8 8 8 8 8 8 8 8 8 8 8 8 8 8 8 9 9 9 10 10 10 11 11 12 12 12 12 13 13
20 20 19 19 18 17 16 15 14 13 12 12 11 10 10 10 9 9 9 10 10 10 10 10 10 10 9 9 9 10 10 10 11 11 11 12 12 13 13 13 14 14 15
22 21 21 20 19 18 18 17 16 15 14 13 13 12 12 11 11 11 11 11 11 11 11 11 11 11 11 11 11 11 12 12 12 12 13 13 14 14 15 15 16 16 17
23 23 23 22 21 20 19 19 18 17 16 15 14 14 13 13 13 12 12 12 12 12 12 12 12 13 13 13 13 13 13 13 13 14 14 15 15 16 16 17 18 18 19
25 24 24 24 23 22 22 21 20 19 18 17 16 15 15 14 14 14 13 13 13 13 13 13 14 14 14 15 15 15 14 15 15 15 16 16 17 17 18 19 19 20 20
27 26 25 25 24 24 23 23 22 21 20 19 18 17 16 16 15 15 14 14 14 14 14 15 15 15 16 16 16 16 16 16 16 16 17 18 18 19 20 21 21 21 21
28 28 27 27 26 25 24 24 23 22 21 20 19 18 18 17 17 16 16 16 16 16 16 16 16 17 17 17 17 17 17 18 18 18 19 19 20 21 21 22 22 22 22
31 30 29 28 28 27 26 25 24 23 23 22 21 20 19 19 18 18 18 18 18 18 18 18 18 18 18 18 18 18 19 19 19 20 21 21 22 23 23 23 23 23 23
32 31 30 29 29 29 28 27 26 25 24 23 22 22 21 20 20 19 20 20 20 19 19 19 19 19 19 19 20 20 20 21 21 22 22 23 23 24 24 24 24 25 25
33 32 32 31 30 30 30 28 28 27 26 25 24 23 23 22 22 21 21 21 21 20 20 20 21 21 21 21 22 22 22 22 23 23 24 24 25 25 25 26 26 26 27
34 34 33 32 32 31 30 30 29 29 28 27 26 25 25 24 24 23 22 22 23 22 22 22 22 23 23 23 23 24 24 24 25 25 26 26 26 26 27 27 28 28 28
36 35 34 34 33 33 32 31 31 30 30 29 28 27 26 26 25 25 24 24 24 24 24 24 24 24 24 25 25 26 26 26 27 27 27 27 28 28 28 28 29 30 30
38 37 36 35 35 34 33 33 33 32 31 30 29 29 28 27 27 26 26 26 25 25 25 25 26 26 26 27 27 27 27 28 28 29 29 29 29 29 30 30 30 31 31
40 39 38 37 36 36 35 35 34 33 33 32 31 30 30 29 28 28 28 28 28 27 27 27 27 28 28 28 28 29 29 29 29 30 30 30 30 30 31 31 32 33 33
42 41 40 39 38 37 36 36 35 35 34 33 32 31 31 30 30 30 30 30 29 29 29 29 28 28 29 30 30 30 30 30 30 31 31 31 32 32 33 33 34 35 35
43 42 41 40 39 38 37 36 36 35 35 34 33 33 32 32 32 31 31 31 31 31 31 31 31 31 31 31 31 31 31 31 32 32 32 33 34 34 35 35 36 37 37
44 43 42 40 40 39 38 37 36 36 35 34 34 33 33 33 33 33 33 33 33 33 33 33 33 33 33 33 33 33 32 32 33 33 34 34 35 36 37 37 38 39 39
44 43 42 41 40 40 38 38 37 36 36 35 35 34 35 34 34 34 35 35 35 35 35 34 34 34 35 35 35 34 34 34 35 35 35 35 36 37 38 39 40 41 42
45 44 43 43 42 41 40 39 38 37 37 37 36 35 35 35 35 35 36 36 36 36 36 36 36 36 36 36 37 37 37 36 37 37 37 37 38 39 40 41 42 43 43
46 45 44 43 43 42 41 40 40 39 39 38 38 37 37 37 37 37 37 37 37 37 37 37 37 37 37 37 38 38 38 39 39 39 39 39 40 41 42 43 44 44 44
46 46 45 44 43 43 42 42 41 40 40 40 39 38 38 38 38 38 38 38 38 38 38 38 38 38 38 39 39 40 40 40 40 40 40 41 41 42 43 44 45 44 44
Wind_Direction
213 212 212 207 204 202 201 202 203 204 200 198 200 204 210 198 195 204 33 2 4 8 11 6 1 357 351 348 342 340 341 345 346 346 343 341 340 340 339 337 333 332 330
216 215 214 209 208 210 211 212 213 215 213 213 217 221 225 237 242 247 267 294 306 317 324 329 334 336 333 333 330 330 332 334 336 335 333 333 333 334 334 333 330 328 328
220 218 215 214 215 216 217 219 222 223 223 225 227 229 234 245 251 256 265 280 289 294 302 313 319 322 324 324 322 321 320 321 322 324 325 326 326 327 326 326 325 323 322
222 221 218 218 219 220 221 223 225 227 227 228 231 234 241 250 257 261 267 275 282 287 294 303 308 311 314 314 313 311 312 314 316 316 316 317 318 320 320 320 320 319 317
223 222 221 221 222 222 224 226 228 231 233 234 236 240 247 254 260 266 270 274 279 283 289 294 300 304 305 307 310 309 308 308 309 309 310 311 313 315 315 315 315 315 316
225 224 223 225 226 227 228 229 231 234 238 240 241 246 252 258 263 268 270 273 276 278 283 289 295 299 301 304 306 307 307 306 306 305 306 307 309 310 310 310 310 311 311
227 226 226 227 229 230 230 231 235 238 240 243 245 249 254 260 266 270 272 275 276 277 280 286 291 294 297 298 301 303 304 305 303 302 302 303 304 305 305 305 306 307 307
227 227 227 228 230 230 231 233 237 239 241 243 247 251 256 261 266 270 272 274 276 277 281 285 287 289 292 294 296 297 299 301 300 300 301 300 301 302 303 304 304 305 305
228 228 229 230 231 231 232 234 237 240 243 245 248 252 256 260 263 266 270 273 274 277 280 284 286 287 288 290 292 294 296 297 299 299 299 299 300 300 301 301 302 302 303
230 230 231 232 233 233 235 236 238 240 243 246 249 252 255 258 261 264 267 270 272 275 279 283 284 285 286 288 290 293 294 294 297 298 299 299 300 301 301 301 300 301 301
231 231 232 233 234 235 236 238 240 242 243 246 248 252 255 257 260 263 266 269 273 276 279 281 282 284 286 287 289 290 291 292 294 296 297 298 299 300 300 301 300 300 300
232 233 233 234 234 235 237 238 240 242 244 246 248 251 254 256 258 261 265 269 273 276 279 281 282 284 285 286 287 289 290 291 291 293 295 296 298 298 299 300 299 299 298
232 233 233 234 234 236 237 239 241 242 244 245 247 251 254 256 258 262 266 269 273 276 278 280 281 283 283 284 286 288 289 290 290 291 293 295 295 297 297 298 297 297 297
232 232 233 234 235 236 238 239 240 242 243 245 247 250 253 256 259 263 266 269 272 275 277 278 280 281 282 282 283 286 288 289 290 291 292 293 294 295 295 296 296 295 295
232 233 233 235 236 237 238 239 240 242 244 245 247 250 253 256 260 263 265 267 270 274 276 278 279 281 281 282 282 284 287 288 289 290 291 292 293 293 294 294 294 294 294
233 233 234 236 237 238 239 240 241 243 244 246 248 250 253 256 259 261 265 268 270 272 275 277 279 280 280 281 282 284 285 287 288 290 291 291 292 292 292 293 293 293 293
233 234 235 237 238 239 240 241 242 243 245 246 248 251 254 256 259 262 264 268 270 271 274 276 278 279 279 281 283 283 284 285 287 289 290 291 291 291 292 292 293 293 293
232 234 235 237 238 239 240 241 242 244 246 248 250 252 254 256 259 262 264 267 269 271 273 275 277 278 279 281 282 282 282 284 287 288 289 290 291 292 292 292 293 293 293
233 234 235 237 238 240 240 241 243 244 246 248 250 252 255 257 259 262 263 265 267 269 273 275 277 278 278 280 281 282 282 283 285 287 288 289 291 292 292 293 293 293 293
233 234 235 236 238 239 241 242 244 245 247 249 250 252 254 256 259 261 263 265 267 269 272 274 276 278 278 279 281 283 284 284 285 286 288 289 291 291 292 292 292 293 293
233 234 236 237 237 239 240 242 244 246 248 249 250 252 254 257 259 262 264 266 268 269 271 273 275 277 278 279 281 282 284 284 284 286 288 289 290 291 292 292 293 293 293
233 234 236 237 238 239 240 242 244 246 248 250 251 252 255 257 260 262 264 266 268 269 271 273 274 276 278 279 280 282 283 283 284 286 288 290 290 292 292 292 293 292 292
233 234 235 237 238 238 240 242 244 246 247 249 251 253 255 258 260 262 264 266 268 269 272 273 274 276 278 279 280 281 282 283 284 285 288 290 291 292 292 293 292 292 293
232 233 235 236 237 239 240 242 244 246 248 249 252 254 256 259 261 263 264 266 268 270 272 274 275 276 278 279 280 281 283 284 285 285 287 289 290 291 292 293 293 293 293
232 233 234 236 237 239 240 242 245 246 248 250 252 254 257 259 261 263 264 266 268 271 273 274 274 276 277 278 280 281 283 284 285 286 287 288 290 291 292 293 294 294 294
233 233 234 235 237 239 241 243 245 247 248 250 252 254 257 259 261 263 265 266 268 270 272 273 274 276 277 278 280 281 282 284 285 286 288 289 290 291 292 293 293 293 293
Height
5875 5876 5877 5878 5879 5880 5880 5881 5882 5883 5883 5884 5885 5885 5885 5886 5886 5886 5886 5886 5886 5885 5885 5885 5884 5884 5883 5883 5882 5882 5881 5880 5880 5879 5878 5877 5876 5875 5875 5874 5873 5872 5870
5874 5875 5876 5877 5878 5879 5880 5881 5882 5882 5883 5884 5884 5885 5885 5885 5886 5886 5886 5885 5885 5885 5885 5884 5884 5883 5883 5882 5882 5881 5881 5880 5879 5878 5878 5877 5876 5875 5874 5873 5872 5871 5870
5872 5873 5875 5876 5877 5878 5879 5880 5881 5882 5882 5883 5884 5884 5885 5885 5885 5885 5885 5885 5885 5885 5884 5884 5884 5883 5883 5882 5881 5881 5880 5880 5879 5878 5877 5876 5875 5874 5873 5872 5871 5870 5869
5870 5872 5873 5874 5876 5877 5878 5879 5880 5881 5882 5882 5883 5884 5884 5884 5885 5885 5885 5884 5884 5884 5884 5883 5883 5882 5882 5881 5881 5880 5880 5879 5878 5877 5876 5875 5874 5873 5872 5871 5870 5868 5867
5868 5870 5871 5872 5874 5875 5877 5878 5879 5880 5881 5881 5882 5883 5883 5883 5884 5884 5884 5884 5883 5883 5883 5883 5882 5882 5881 5881 5880 5879 5878 5878 5877 5876 5875 5874 5873 5872 5871 5869 5868 5867 5866
5865 5867 5869 5870 5872 5873 5875 5876 5877 5878 5879 5880 5881 5881 5882 5882 5882 5882 5882 5882 5882 5882 5882 5882 5881 5881 5880 5879 5879 5878 5877 5876 5875 5874 5873 5872 5871 5870 5869 5868 5866 5865 5864
5862 5864 5866 5868 5869 5871 5872 5874 5875 5877 5878 5878 5879 5880 5880 5881 5881 5881 5881 5881 5881 5881 5880 5880 5880 5879 5878 5878 5877 5876 5876 5875 5873 5872 5872 5870 5869 5868 5867 5866 5864 5863 5861
5859 5861 5863 5865 5866 5868 5870 5872 5873 5874 5875 5876 5877 5878 5878 5879 5879 5879 5879 5879 5879 5879 5878 5878 5878 5877 5877 5876 5875 5875 5874 5873 5872 5870 5870 5868 5867 5866 5865 5863 5862 5860 5859
5855 5857 5859 5861 5863 5865 5867 5869 5870 5872 5873 5874 5875 5875 5876 5876 5877 5877 5877 5877 5877 5876 5876 5876 5876 5875 5875 5874 5873 5872 5871 5870 5870 5868 5867 5866 5865 5863 5862 5860 5859 5857 5856
5851 5853 5856 5858 5860 5862 5864 5866 5867 5869 5870 5871 5872 5873 5873 5874 5874 5874 5875 5875 5874 5874 5874 5873 5873 5873 5872 5871 5871 5870 5869 5868 5867 5866 5864 5863 5862 5860 5859 5857 5856 5854 5852
5846 5849 5851 5854 5856 5858 5860 5862 5864 5865 5867 5868 5869 5870 5870 5871 5871 5872 5872 5872 5872 5871 5871 5871 5870 5870 5869 5869 5868 5867 5866 5865 5864 5863 5861 5860 5858 5857 5855 5854 5852 5850 5848
5841 5844 5847 5849 5852 5854 5856 5858 5860 5862 5863 5864 5865 5866 5867 5868 5868 5868 5869 5869 5869 5868 5868 5868 5867 5867 5866 5865 5864 5864 5863 5861 5860 5859 5858 5856 5855 5853 5851 5850 5848 5846 5844
5836 5838 5842 5844 5847 5849 5852 5854 5856 5858 5859 5860 5862 5863 5863 5864 5865 5865 5865 5865 5865 5865 5865 5864 5864 5863 5863 5862 5861 5860 5859 5858 5857 5855 5854 5853 5851 5849 5847 5846 5844 5842 5840
5830 5833 5836 5839 5842 5845 5847 5849 5851 5853 5855 5856 5857 5858 5859 5860 5861 5861 5861 5861 5861 5861 5861 5861 5860 5859 5859 5858 5857 5856 5855 5854 5853 5851 5850 5848 5846 5845 5843 5841 5839 5837 5835
5824 5827 5831 5834 5837 5839 5842 5844 5846 5848 5850 5852 5853 5854 5855 5856 5857 5857 5857 5857 5857 5857 5857 5857 5856 5855 5855 5854 5853 5852 5851 5849 5848 5847 5845 5843 5841 5840 5838 5836 5834 5832 5830
5818 5822 5825 5828 5831 5834 5836 5839 5841 5843 5845 5847 5848 5849 5850 5851 5852 5852 5852 5853 5853 5853 5852 5852 5851 5851 5850 5849 5848 5847 5846 5844 5843 5841 5840 5838 5836 5834 5832 5830 5828 5826 5824
5812 5815 5819 5822 5825 5828 5830 5833 5835 5837 5839 5841 5843 5844 5845 5846 5847 5847 5848 5848 5848 5848 5847 5847 5846 5846 5845 5844 5843 5842 5840 5839 5838 5836 5834 5832 5831 5829 5826 5824 5822 5820 5817
5804 5808 5812 5815 5818 5821 5824 5827 5829 5831 5833 5835 5837 5838 5839 5840 5841 5842 5842 5843 5842 5842 5842 5842 5841 5840 5840 5839 5837 5836 5835 5833 5832 5830 5828 5826 5824 5822 5820 5818 5816 5813 5811
5797 5801 5805 5808 5812 5814 5817 5820 5822 5825 5827 5829 5830 5832 5834 5835 5835 5836 5837 5837 5837 5837 5836 5836 5835 5834 5834 5833 5831 5830 5829 5827 5826 5824 5822 5820 5818 5816 5814 5811 5809 5806 5804
5788 5793 5797 5800 5804 5807 5810 5813 5815 5818 5820 5822 5824 5825 5827 5828 5829 5830 5830 5831 5831 5831 5830 5830 5829 5828 5827 5826 5825 5824 5822 5821 5819 5817 5815 5813 5811 5809 5806 5804 5802 5799 5796
5780 5784 5789 5793 5796 5800 5803 5806 5808 5811 5813 5815 5817 5819 5820 5821 5822 5823 5824 5824 5824 5824 5824 5823 5823 5822 5821 5819 5818 5817 5816 5814 5813 5811 5808 5806 5804 5801 5799 5796 5794 5791 5788
5772 5776 5780 5785 5789 5792 5795 5798 5801 5803 5806 5808 5810 5811 5813 5814 5815 5816 5816 5817 5817 5817 5817 5816 5816 5815 5814 5812 5811 5810 5809 5808 5805 5804 5801 5799 5796 5794 5791 5788 5785 5782 5779
5763 5768 5772 5776 5780 5784 5787 5790 5793 5795 5798 5800 5802 5804 5805 5806 5807 5808 5808 5809 5809 5809 5809 5809 5808 5807 5806 5805 5804 5803 5801 5800 5798 5797 5794 5791 5788 5785 5782 5779 5776 5773 5769
5755 5759 5763 5767 5772 5776 5779 5782 5785 5788 5791 5793 5794 5796 5797 5798 5799 5800 5800 5801 5801 5801 5801 5801 5800 5799 5798 5797 5796 5794 5793 5791 5790 5788 5786 5783 5780 5777 5773 5770 5766 5763 5759
5745 5750 5754 5758 5763 5767 5770 5774 5777 5780 5782 5784 5786 5788 5789 5790 5791 5792 5792 5792 5793 5793 5792 5792 5791 5791 5790 5788 5787 5786 5784 5782 5780 5779 5777 5775 5772 5768 5764 5761 5757 5753 5749
5735 5740 5745 5749 5754 5758 5762 5765 5768 5771 5773 5775 5777 5779 5780 5782 5783 5783 5783 5784 5784 5784 5784 5783 5783 5782 5781 5780 5778 5777 5775 5774 5771 5769 5767 5765 5762 5759 5755 5751 5746 5743 5739